Location: Brodeslavy
(49.9527°N, 13.5567°E)
Time: 20:43:08
(UTC+00:00)

SL-24 R/B - RUBIN 2 - Pass Details

Date: 17 June 2025
Orbit: 590 x 998 km, 64.6° (Epoch: 16 July)

Event Time Altitude Azimuth Distance (km) Brightness Sun altitude
Rises 23:42:34 0° 317° (NW) 3,193 7.8 -16.2°
Reaches altitude 10° 23:45:05 10° 314° (NW) 2,201 6.8 -16.2°
Maximum altitude 23:49:57 59° 236° (WSW) 767 3.8 -16.0°
Enters shadow 23:52:23 26° 166° (SSE) 1,265 4.6 -15.9°
